Location: Cambroso
(45.2833°N, 12.0850°E)
Time: 18:43:38
(UTC+00:00)

SJ 16-02 - Pass Details

Date: 21 January 2021
Orbit: 606 x 616 km, 75.0° (Epoch: 04 March)

Event Time Altitude Azimuth Distance (km) Brightness Sun altitude
Rises 19:04:08 0° 244° (WSW) 2,869 5.6 -31.5°
Reaches altitude 10° 19:07:10 10° 267° (W) 1,968 4.8 -32.0°
Maximum altitude 19:09:52 16° 305° (NW) 1,616 4.0 -32.5°
Enters shadow 19:11:24 14° 329° (NNW) 1,736 4.0 -32.8°
